www.pogodaiklimat.ru

Погода и климат >> Архив погоды >> Индонезия >> Лабуха


ПОГОДА в Лабухе

  • Прогноз погоды в Лабухе
  • Монитор погоды в Лабухе

АРХИВ ПОГОДЫ в Лабухе

Время (UTC), дата Ветер
(напр.,м/с)
 
Видим.   Явления Облачность Т
(С)
Тd
(С)
f
(%)
Тe
(С)
Тes
(С)
Комфортность P
(гПа)
Po
(гПа)
Тmin
(С)
Tmax
(С)
R
(мм)
R24
(мм)
S
(см)
03 9.09 З 5 9000 м 8/3 500 м
[Cu Sc Ac As Ci sp]
+29.2 +22.7 68 +39 +44 очень
душно
1012.0 1009.8
06 9.09 ЮЗ 4 9000 м 5/4 500 м
[Cu Sc Ac trans Ci sp]
+29.2 +21.8 64 +37 +42 очень
душно
1009.6 1007.4
09 9.09 ЮЗ 4 9000 м 5/3 500 м
[Cu Sc Ac trans Ci sp]
+27.6 +21.6 70 +35 +35 очень
душно
1010.2 1008.0
12 9.09 штиль 0 9000 м 5/3 500 м
[Cu Sc Ac trans Ci sp]
+24.0 +20.6 81 +30 +30 очень
душно
1012.5 1010.3 +29.2
15 9.09 штиль 0 9000 м 5/3 500 м
[Cu Sc Ac trans Ci sp]
+22.4 +18.5 79 +28 +28 душно 1012.7 1010.5
18 9.09 штиль 0 9000 м 5/3 500 м
[Cu Sc Ac As Ci sp]
+21.4 +18.1 81 +26 +26 душно 1011.1 1008.9
21 9.09 штиль 0 9000 м 5/3 500 м
[Cu Sc Ac trans Ci sp]
+20.8 +18.8 88 +25 +25 комфорт 1011.4 1009.2
00 10.09 СВ 1 9000 м 5/3 570 м
[Cu med, cong Ac trans Ci sp]
+26.0 +20.8 73 +33 +38 очень
душно
1012.9 1010.7 +20.6
03 10.09 З 5 9000 м 6/4 540 м
[Cu Sc Ac As Ci sp]
+28.7 +21.4 65 +37 +42 очень
душно
1012.3 1010.2
06 10.09 З 6 9000 м 6/4 540 м
[Cu Sc Ac As Ci sp]
+29.2 +21.1 62 +37 +40 очень
душно
1010.4 1008.3
09 10.09 ЮЗ 1 10 км 6/4 540 м
[Cu Sc Ac As Ci sp]
+27.0 +20.9 69 +34 +34 очень
душно
1011.0 1008.8
12 10.09 штиль 0 10 км 6/4 540 м
[Cu Sc Ac trans Ci sp]
+24.2 +20.8 81 +30 +30 очень
душно
1013.5 1011.3 +30.2
15 10.09 штиль 0 10 км 5/3 540 м
[Cu Sc Ac trans Ci sp]
+22.5 +20.4 88 +29 +29 очень
душно
1014.0 1011.8
18 10.09 штиль 0 10 км 5/3 540 м
[Cu Sc Ac trans Ci sp]
+22.5 +20.4 88 +29 +29 очень
душно
1014.0 1011.8
21 10.09 штиль 0 10 км 5/3 540 м
[Cu Sc Ac trans Ci sp]
+21.6 +16.6 73 +25 +25 комфорт 1013.0 1010.8
00 11.09 З 5 9000 м 5/3 540 м
[Cu Sc Ac trans Ci sp]
+26.8 +18.1 59 +31 +34 душно 1013.9 1011.7 +21.6
03 11.09 З 5 10 км 5/3 570 м
[Cu med, cong Ac trans Ci sp]
+28.8 +18.9 55 +34 +41 очень
душно
1012.7 1010.5
06 11.09 З 5 10 км 5/3 570 м
[Cu med, cong Ac trans Ci sp]
+28.6 +20.1 60 +35 +39 очень
душно
1010.8 1008.6
09 11.09 З 3 10 км 5/3 570 м
[Cu Sc Ac trans Ci sp]
+27.0 +19.9 65 +33 +33 очень
душно
1011.0 1008.9
12 11.09 штиль 0 10 км 5/3 570 м
[Cu med, cong Ac trans Ci sp]
+23.8 +20.4 81 +29 +29 душно 1013.4 1011.2 +30.0
15 11.09 штиль 0 9000 м 5/4 540 м
[Cu Sc Ac As Ci sp]
+22.4 +19.5 84 +28 +28 душно 1014.1 1011.9
18 11.09 штиль 0 10 км 5/4 540 м
[Cu Sc Ac As Ci sp]
+21.8 +19.5 87 +27 +27 душно 1012.5 1010.3
21 11.09 штиль 0 10 км 5/3 540 м
[Cu Sc Ac As Ci sp]
+20.0 +18.3 90 +23 +23 комфорт 1012.9 1010.7
00 12.09 штиль 0 10 км 5/4 540 м
[Cu Sc Ac trans Ci sp]
+26.4 +20.9 72 +33 +39 очень
душно
1014.0 1011.8 +19.8
03 12.09 З 5 9000 м 5/4 540 м
[Cu Sc Ac trans Ci sp]
+28.9 +21.1 63 +36 +43 очень
душно
1013.0 1010.8
06 12.09 З 4 9000 м 5/4 540 м
[Cu Sc Ac trans Ci sp]
+28.8 +21.6 65 +37 +42 очень
душно
1010.5 1008.4
09 12.09 ЮЗ 3 9000 м 5/4 540 м
[Cu Sc Ac trans Ci sp]
+27.2 +21.8 72 +35 +35 очень
душно
1010.4 1008.3
12 12.09 штиль 0 9000 м 5/4 540 м
[Cu Sc Ac trans Ci sp]
+24.2 +20.8 81 +30 +30 очень
душно
1012.1 1009.9 +29.4
15 12.09 штиль 0 10 км 4/3 570 м
[Cu med, cong Ac trans Ci sp]
+22.2 +21.2 94 +29 +29 очень
душно
1012.8 1010.6
18 12.09 штиль 0 9000 м 8/4 540 м
[Cu Sc Ac As Ci sp]
+21.4 +20.7 96 +27 +27 душно 1012.4 1010.3
21 12.09 штиль 0 9000 м 8/4 540 м
[Cu Sc Ac As Ci sp]
+20.8 +19.5 92 +25 +25 комфорт 1012.8 1010.7
00 13.09 штиль 0 10 км 5/3 570 м
[Cu med, cong Ac trans Ci sp]
+25.4 +21.3 78 +32 +39 очень
душно
1013.6 1011.5 +21.9
03 13.09 З 3 10 км 8/4 540 м
[Cu Sc Ac As Ci sp]
+29.9 +20.6 57 +37 +44 очень
душно
1011.8 1009.7
06 13.09 штиль 0 50 км ?/? +29.6 +22.5 66 +39 +39 очень
душно
1009.6 1007.5
09 13.09 З 3 9000 м 5/3 540 м
[Cu Sc Ac trans Ci sp]
+28.0 +22.0 70 +36 +36 очень
душно
1010.4 1008.2
12 13.09 штиль 0 10 км 5/3 570 м
[Cu Sc Ac trans Ci sp]
+25.3 +22.1 82 +33 +33 очень
душно
1012.5 1010.3
15 13.09 штиль 0 10 км 5/4 570 м
[Cu Sc Ac trans Ci sp]
+23.2 +22.5 96 +32 +32 очень
душно
1013.7 1011.6
18 13.09 штиль 0 9000 м 5/3 570 м
[Cu Sc Ac trans Ci sp]
+21.6 +20.3 92 +27 +27 душно 1012.7 1010.6
21 13.09 штиль 0 9000 м 5/3 570 м
[Cu Sc Ac trans Ci sp]
+21.0 +20.0 94 +26 +26 душно 1013.2 1011.1
00 14.09 СВ 1 9000 м 6/4 500 м
[Cu Sc Ac As Ci sp]
+25.4 +22.7 85 +33 +38 очень
душно
1014.2 1012.1 +21.0
03 14.09 З 3 9000 м 8/5 500 м
[Cu Sc Ac As Ci sp]
+29.4 +22.3 66 +38 +45 очень
душно
1012.1 1010.0
06 14.09 З 6 9000 м 8/5 500 м
[Cu Sc Ac As Ci sp]
+29.8 +21.1 60 +37 +39 очень
душно
1009.8 1007.6
09 14.09 З 4 10 км 8/5 500 м
[Cu Sc Ac As Ci sp]
+28.0 +22.0 70 +36 +36 очень
душно
1010.3 1008.1
12 14.09 штиль 0 10 км 8/4 500 м
[Cu Sc Ac As Ci sp]
+25.1 +22.2 84 +33 +33 очень
душно
1012.4 1010.2 +31.0
15 14.09 штиль 0 10 км 8/4 500 м
[Cu Sc Ac As Ci sp]
+24.0 +21.5 86 +31 +31 очень
душно
1013.1 1010.9
18 14.09 СВ 1 4000 м слаб. дождь 9/5 480 м
[Cb calv Ac As Ci sp]
+22.9 +21.8 94 +31 +31 очень
душно
1012.3 1010.1 3
21 14.09 штиль 0 8000 м {дождь} 9/5 500 м
[Cu Sc Ac As Ci sp]
+22.0 +20.4 91 +28 +28 душно 1012.5 1010.3
00 15.09 З 2 8000 м в посл. час дождь 9/5 500 м
[Cb calv Ac As Ci sp]
+26.0 +24.2 90 +36 +39 очень
душно
1013.7 1011.5 +22.0 3
03 15.09 З 5 9000 м 8/5 500 м
[Cu Sc Ac As Ci sp]
+29.2 +22.4 67 +38 +43 очень
душно
1012.2 1010.0
06 15.09 ЮЗ 6 9000 м 8/5 500 м
[Cu Sc Ac As Ci sp]
+29.2 +23.4 71 +40 +42 очень
душно
1009.8 1007.6
09 15.09 З 3 10 км 6/4 500 м
[Cu Sc Ac As Ci sp]
+27.2 +22.4 75 +36 +36 очень
душно
1010.2 1008.1
12 15.09 штиль 0 10 км 6/5 500 м
[Cu Sc Ac As Ci sp]
+25.4 +23.0 87 +34 +34 очень
душно
1012.4 1010.2 +29.6
15 15.09 штиль 0 10 км 6/4 500 м
[Cu Sc Ac As Ci sp]
+23.4 +21.2 87 +31 +31 очень
душно
1013.0 1010.8
18 15.09 штиль 0 10 км 6/4 500 м
[Cu Sc Ac As Ci sp]
+23.4 +20.0 87 +31 +31 очень
душно
1012.0 1009.8
21 15.09 ЮВ 2 10 км 6/4 500 м
[Cu Sc Ac As Ci sp]
+21.4 +19.8 91 +26 +26 душно 1012.0 1009.8

 

Местоположение метеостанции Лабуха (Индонезия): широта -0.63 долгота 127.50 высота над уровнем моря 3 м.

В архиве по умолчанию представлена погода в Лабухе за последнюю неделю. Архивные данные за месяц целиком и за предыдущие месяцы, начиная с января 2011 года, Вы можете получить, выбрав интересующий диапазон дат из раскрывающегося списка и нажав кнопку "Ввод!".


*Определитесь, кто Вы:
робот инопланетянин человек

Внимание! Время в таблицах - всемирное. Для получения местного времени необходимо прибавить поправку, которая равна 9 ч.

Смотрите также архив погоды в соседних городах и на ближайших метеорологических станциях:

Погода в Тернате (Индонезия) (156 км)
Погода на Санане (Индонезия) (232 км)
Погода в Голеа (Индонезия) (275 км)
Погода в Намлеа (Индонезия) (295 км)
Погода в Амахаи (Индонезия) (339 км)
Погода в Битунге (Индонезия) (345 км)
Погода в Амбоне (Индонезия) (347 км)
Погода в Менадо (Индонезия) (375 км)
Погода в Тауне (Индонезия) (398 км)
Погода в Аэропорту Соронг-Джефман (Индонезия) (403 км)

Пояснения к столбцам:

Ветер - указаны скорость ветра в м/с - средняя за 10 мин, порывы в срок и между сроками (в фигурных скобках) и направление, откуда дует ветер: С - северный, СВ - северо-восточный, В - восточный, ЮВ - юго-восточный, Ю - южный, ЮЗ - юго-западный, З - западный, СЗ - северо-западный.
Видимость - горизонтальная дальность видимости в метрах или километрах. При видимости от 1 до 10 км при отсутствии осадков обычно наблюдается дымка, при ухудшении видимости до 1 км и менее - туман. В сухую погоду видимость может ухудшаться дымом, пылью или мглою.
Явления - указаны атмосферные явления, наблюдавшиеся в срок или в последний час перед сроком; фигурными скобками обозначены явления, наблюдавшиеся между сроками (за 1-3 часа до срока); квадратными скобками обозначены град или гололедные отложения с указанием их диаметра в мм.
Облачность - указаны через наклонную черту общая и нижняя облачность в баллах и высота нижней границы облаков в метрах; квадратными скобками обозначены формы облаков: Ci - перистые, Cs - перисто-слоистые, Cc - перисто-кучевые, Ac - высококучевые, As - высокослоистые, Sc - слоисто-кучевые, Ns - слоисто-дождевые, Cu - кучевые, Cb - кучево-дождевые. Подробнее классификацию облаков см. в Атласе облаков (PDF).
T - Температура воздуха - температура, измеренная на высоте 2 м над землей.
Td - Температура точки росы - температура, при понижении до которой содержащийся в воздухе водяной пар достигнет насыщения.
f - Относительная влажность воздуха - влажноcть воздуха, измеренная на высоте 2 м над землей.
Te - Эффективная температура - температура, которую ощущает одетый по сезону человек в тени. Характеристика душности погоды. При расчете учитывается влияние влажности воздуха и скорости ветра на теплоощущения человека.
Tes - Эффективная температура на солнце - температура, которую ощущает человек, с поправкой на солнечный нагрев. Характеристика знойности погоды. Зависит от высоты солнца над горизонтом, облачности и скорости ветра. Ночью, в пасмурную погоду, а также при ветре 12 м/с и более поправка равна нулю.
P - Атмосферное давление - приведенное к уровню моря атмосферное давление.
Po - Атмосферное давление - измеренное на уровне метеостанции атмосферное давление.
Tmin - Минимальная температура - минимум температуры воздуха на высоте 2 м над землей.
Tmax - Максимальная температура - максимум температуры воздуха на высоте 2 м над землей.
R - Количество осадков - Количество выпавших осадков за период времени, мм. При наведении курсора мыши на число - период времени, за который выпало указанное количество осадков.
R24 - Количество осадков - Количество выпавших осадков за 24 часа, мм.
S - Снежный покров - Высота снежного покрова, см. При наведении курсора мыши на число - состояние снежного покрова и степень покрытия местности в баллах.